Regional Weather Roundup
Issued by NWS Little Rock, AR

Home | Current Version | Previous Version | Text Only | Print | Product List | Glossary Off
Versions: 1 2 3 4 5 6 7 8 9 10 11 12 13 14 15 16 17 18 19 20 21 22 23 24 25 26 27 28 29 30 31 32 33 34 35 36 37 38 39 40 41 42 43 44 45 46 47 48 49 50

644
ASUS44 KLZK 081305
RWRLZK

WEATHER ROUNDUP FOR ARKANSAS
NATIONAL WEATHER SERVICE LITTLE ROCK AR
700 AM CST THU DEC 08 2016

NOTE: "FAIR" INDICATES FEW OR NO CLOUDS BELOW 12,000 FEET WITH NO
SIGNIFICANT WEATHER AND/OR OBSTRUCTIONS TO VISIBILITY.

ARZ001-003-010-029-081400-
NORTHWEST ARKANSAS

CITY           SKY/WX    TMP DP  RH WIND       PRES   REMARKS
FAYETTEVILLE   PTCLDY    19  13  77 N7        30.57R WCI  10
FORT SMITH     PTCLDY    28  12  51 N14       30.61R WCI  17
HARRISON       PTCLDY    20  12  71 W9        30.52R WCI   9
BENTONVILLE    PTCLDY    19   7  58 N6        30.57R WCI  11
ROGERS         CLOUDY    18  11  74 NW6       30.57R WCI  10
SILOAM SPGS    CLOUDY    19  10  68 N7        30.57R WCI  10
HIGHFILL       CLOUDY    19  11  70 N5        30.56R WCI  12
SPRINGDALE     CLEAR     21  10  63 NW8       30.58R WCI  12
$$

ARZ004-005-016-081400-
NORTH CENTRAL ARKANSAS

CITY           SKY/WX    TMP DP  RH WIND       PRES   REMARKS
BATESVILLE     MOCLDY    28  19  69 NW8       30.52R WCI  20
FLIPPIN        PTCLDY    25  10  54 NW7       30.52R WCI  17
MTN HOME       CLOUDY    22  12  65 N5        30.52R WCI  16
$$

ARZ040-041-081400-
WEST CENTRAL ARKANSAS

CITY           SKY/WX    TMP DP  RH WIND       PRES   REMARKS
MENA           CLOUDY    32  30  93 N5        30.52R WCI  27
MOUNT IDA      CLOUDY    33  26  75 N6        30.49R WCI  28
$$

ARZ009-017-025-026-028-081400-
NORTHEAST ARKANSAS

CITY           SKY/WX    TMP DP  RH WIND       PRES   REMARKS
CORNING        FAIR      27  16  63 NW9       30.52R WCI  17
JONESBORO      CLOUDY    31  22  69 NW9       30.49R WCI  23
NEWPORT        MOCLDY    29  20  69 NW18      30.52  WCI  16
WALNUT RIDGE   CLOUDY    28  16  59 NW15      30.51R WCI  17
BLYTHEVILLE    PTCLDY    31  23  72 N15       30.48R WCI  20
$$

ARZ022-023-033-042-044-081400-
CENTRAL ARKANSAS

CITY           SKY/WX    TMP DP  RH WIND       PRES   REMARKS
LITTLE ROCK    CLOUDY    33  26  75 N13       30.51R WCI  24
N LITTLE ROCK    N/A     32  24  70 N9        30.54R WCI  25
JACKSONVILLE   CLOUDY    34  24  67 N14       30.50R WCI  25
SEARCY         MOCLDY    32  23  69 N15G21    30.52R WCI  22
HOT SPRINGS    CLOUDY    35  27  72 N6        30.51R WCI  30
RUSSELLVILLE   CLOUDY    32  22  66 NW7       30.53R WCI  26
CLINTON        FAIR      28  16  59 N7        30.54R WCI  21
$$

ARZ036-081400-
EAST ARKANSAS

CITY           SKY/WX    TMP DP  RH WIND       PRES   REMARKS
WEST MEMPHIS   CLOUDY    34  23  64 N10       30.46R WCI  26
$$

ARZ050-053-066-070-073-081400-
SOUTHWEST ARKANSAS

CITY           SKY/WX    TMP DP  RH WIND       PRES   REMARKS
ARKADELPHIA    FAIR      37  28  70 N7        30.51R
CAMDEN         CLOUDY    37  28  70 N8        30.49R
TEXARKANA      CLOUDY    38  31  76 N7        30.49R
EL DORADO      CLOUDY    37  32  82 N6        30.47R
DE QUEEN       CLOUDY    34  28  79 N5        30.52R WCI  30
$$

ARZ056-057-069-081400-
SOUTHEAST ARKANSAS

CITY           SKY/WX    TMP DP  RH WIND       PRES   REMARKS
PINE BLUFF     CLOUDY    37  27  67 N15G21    30.49R
STUTTGART      CLOUDY    36  23  60 N13       30.50R
MONTICELLO     CLOUDY    40  26  57 VRB7      30.46R

$$






USA.gov is the U.S. government's official web portal to all federal, state and local government web resources and services.